Location: Durham
(54.7770°N, 1.5720°W)
Time: 08:42:48
(UTC+00:00)

ISS - Visible Passes

Search period start: 10 February 2016 00:00
Search period end: 20 February 2016 00:00
Orbit: 398 x 408 km, 51.6° (Epoch: 09 February)

Date Brightness Start Highest point End Pass type
(mag) Time Alt. Az. Time Alt. Az. Time Alt. Az.
10 Feb -2.9 19:03:47 10° WSW 19:06:56 48° S 19:07:16 46° SSE visible
11 Feb -2.7 18:11:12 10° WSW 18:14:21 47° S 18:16:46 15° ESE visible
11 Feb -1.4 19:47:28 10° W 19:49:24 27° WSW 19:49:24 27° WSW visible
12 Feb -2.6 18:54:49 10° W 18:57:56 43° S 18:58:54 32° SE visible
12 Feb 0.1 20:31:27 10° WSW 20:31:32 10° WSW 20:31:32 10° WSW visible
13 Feb -2.6 18:02:09 10° WSW 18:05:18 48° S 18:08:25 10° ESE visible
13 Feb -1.6 19:38:35 10° W 19:41:03 26° SW 19:41:03 26° SW visible
14 Feb -2.0 18:45:48 10° W 18:48:47 34° SSW 18:50:35 19° SE visible
14 Feb -0.1 20:23:08 10° WSW 20:23:13 10° WSW 20:23:13 10° WSW visible
15 Feb -2.3 17:53:03 10° W 17:56:09 41° SSW 17:59:14 10° ESE visible
15 Feb -1.1 19:29:47 10° WSW 19:32:04 18° SSW 19:32:48 17° SSW visible
16 Feb -1.3 18:36:47 10° W 18:39:29 24° SSW 18:42:12 10° SSE visible
17 Feb -0.4 19:21:38 10° SW 19:22:34 11° SW 19:23:29 10° SSW visible
18 Feb -0.6 18:27:55 10° WSW 18:30:01 16° SSW 18:32:07 10° S visible
